TimeAKDT,TemperatureF,Dew PointF,Humidity,Sea Level PressureIn,VisibilityMPH,Wind Direction,Wind SpeedMPH,Gust SpeedMPH,PrecipitationIn,Events,Conditions,WindDirDegrees,DateUTC
12:16 AM,8.6,3.2,79,30.10,10.0,ENE,5.8,-,N/A,,Scattered Clouds,60,2013-04-01 08:16:00
12:36 AM,6.8,3.2,85,30.10,10.0,Calm,Calm,-,N/A,,Clear,0,2013-04-01 08:36:00
12:56 AM,6.8,3.2,85,30.11,10.0,Calm,Calm,-,N/A,,Clear,0,2013-04-01 08:56:00
1:16 AM,6.8,-0.4,72,30.11,10.0,Calm,Calm,-,N/A,,Mostly Cloudy,0,2013-04-01 09:16:00
1:36 AM,5.0,1.4,85,30.11,10.0,NNW,3.5,-,N/A,,Overcast,330,2013-04-01 09:36:00
1:56 AM,5.0,-9999,N/A,30.12,10.0,NNW,3.5,-,N/A,,Overcast,340,2013-04-01 09:56:00
2:16 AM,6.8,-14.8,37,30.12,10.0,Calm,Calm,-,N/A,,Overcast,0,2013-04-01 10:16:00
2:36 AM,5.0,-5.8,61,30.11,10.0,Calm,Calm,-,N/A,,Overcast,0,2013-04-01 10:36:00
2:56 AM,5.0,3.2,92,30.11,10.0,Calm,Calm,-,N/A,,Overcast,0,2013-04-01 10:56:00
3:16 AM,5.0,5.0,100,30.12,10.0,NE,3.5,-,N/A,,Mostly Cloudy,40,2013-04-01 11:16:00
4:36 AM,1.4,1.4,100,30.12,10.0,Calm,Calm,-,N/A,,Clear,0,2013-04-01 12:36:00
4:56 AM,1.4,-9999,N/A,30.12,10.0,NNE,3.5,-,N/A,,Clear,30,2013-04-01 12:56:00
5:16 AM,1.4,-7.6,66,30.12,10.0,NNE,3.5,-,N/A,,Clear,30,2013-04-01 13:16:00
5:36 AM,-0.4,-22.0,36,30.11,10.0,ENE,3.5,-,N/A,,Clear,60,2013-04-01 13:36:00
6:16 AM,-2.2,-18.4,46,30.12,10.0,NE,3.5,-,N/A,,Scattered Clouds,50,2013-04-01 14:16:00
6:36 AM,-4.0,-14.8,60,30.12,8.0,Calm,Calm,-,N/A,,Clear,0,2013-04-01 14:36:00
6:56 AM,-4.0,-9999,N/A,30.12,10.0,Calm,Calm,-,N/A,,Clear,0,2013-04-01 14:56:00
7:16 AM,-7.6,-27.4,38,30.12,9.0,Calm,Calm,-,N/A,,Clear,0,2013-04-01 15:16:00
7:36 AM,-4.0,-9999,N/A,30.12,10.0,NNE,3.5,-,N/A,,Clear,30,2013-04-01 15:36:00
7:56 AM,-2.2,-14.8,55,30.12,9.0,ENE,3.5,-,N/A,,Scattered Clouds,60,2013-04-01 15:56:00
8:16 AM,-4.0,-7.6,85,30.12,10.0,Calm,Calm,-,N/A,,Overcast,0,2013-04-01 16:16:00
8:36 AM,-5.8,-5.8,100,30.12,9.0,Calm,Calm,-,N/A,,Overcast,0,2013-04-01 16:36:00
8:56 AM,-2.2,-22.0,39,30.12,10.0,NE,4.6,-,N/A,,Overcast,40,2013-04-01 16:56:00
9:16 AM,-2.2,-5.8,85,30.11,10.0,ENE,3.5,-,N/A,,Overcast,60,2013-04-01 17:16:00
9:36 AM,1.4,-9999,N/A,30.12,10.0,Calm,Calm,-,N/A,,Overcast,0,2013-04-01 17:36:00
9:56 AM,3.2,-5.8,66,30.11,10.0,Calm,Calm,-,N/A,,Overcast,0,2013-04-01 17:56:00
10:16 AM,5.0,-13.0,43,30.12,10.0,Calm,Calm,-,N/A,,Overcast,0,2013-04-01 18:16:00
10:36 AM,6.8,-14.8,37,30.12,10.0,Calm,Calm,-,N/A,,Overcast,0,2013-04-01 18:36:00
10:56 AM,8.6,-9.4,44,30.12,10.0,Calm,Calm,-,N/A,,Overcast,0,2013-04-01 18:56:00
11:16 AM,8.6,8.6,100,30.12,10.0,Calm,Calm,-,N/A,,Overcast,0,2013-04-01 19:16:00
11:36 AM,8.6,-9999,N/A,30.11,10.0,Calm,Calm,-,N/A,,Overcast,0,2013-04-01 19:36:00
11:56 AM,10.4,8.6,92,30.11,10.0,Calm,Calm,-,N/A,,Overcast,0,2013-04-01 19:56:00
12:16 PM,12.2,-2.2,53,30.11,10.0,Calm,Calm,-,N/A,,Overcast,0,2013-04-01 20:16:00
12:36 PM,12.2,-7.6,41,30.11,10.0,Calm,Calm,-,N/A,,Overcast,0,2013-04-01 20:36:00
12:56 PM,14.0,-5.8,41,30.10,10.0,Calm,Calm,-,N/A,,Overcast,0,2013-04-01 20:56:00
1:16 PM,15.8,-4.0,41,30.10,10.0,Calm,Calm,-,N/A,,Overcast,0,2013-04-01 21:16:00
1:36 PM,17.6,3.2,53,30.10,10.0,Calm,Calm,-,N/A,,Overcast,0,2013-04-01 21:36:00
1:56 PM,19.4,6.8,58,30.10,10.0,ESE,3.5,-,N/A,,Mostly Cloudy,110,2013-04-01 21:56:00
2:16 PM,19.4,12.2,74,30.10,10.0,East,6.9,-,N/A,,Mostly Cloudy,80,2013-04-01 22:16:00
2:36 PM,21.2,10.4,63,30.10,10.0,East,6.9,-,N/A,,Overcast,80,2013-04-01 22:36:00
2:56 PM,23.0,10.4,59,30.09,10.0,East,6.9,-,N/A,,Overcast,80,2013-04-01 22:56:00
3:16 PM,23.0,8.6,54,30.09,10.0,East,5.8,-,N/A,,Overcast,90,2013-04-01 23:16:00
3:36 PM,23.0,5.0,46,30.09,10.0,East,6.9,-,N/A,,Overcast,90,2013-04-01 23:36:00
3:56 PM,23.0,5.0,46,30.08,10.0,ENE,6.9,-,N/A,,Overcast,70,2013-04-01 23:56:00
4:16 PM,23.0,6.8,50,30.08,10.0,NE,4.6,-,N/A,,Mostly Cloudy,40,2013-04-02 00:16:00
4:36 PM,23.0,8.6,54,30.08,10.0,NE,5.8,-,N/A,,Scattered Clouds,40,2013-04-02 00:36:00
4:56 PM,24.8,6.8,46,30.08,10.0,NNE,5.8,-,N/A,,Scattered Clouds,20,2013-04-02 00:56:00
5:16 PM,24.8,8.6,50,30.08,10.0,NNE,5.8,-,N/A,,Partly Cloudy,30,2013-04-02 01:16:00
5:36 PM,23.0,6.8,50,30.08,10.0,NNE,5.8,-,N/A,,Mostly Cloudy,20,2013-04-02 01:36:00
5:56 PM,21.2,6.8,54,30.08,10.0,North,4.6,-,N/A,,Overcast,10,2013-04-02 01:56:00
6:16 PM,23.0,6.8,50,30.08,10.0,North,4.6,-,N/A,,Overcast,10,2013-04-02 02:16:00
6:36 PM,23.0,6.8,50,30.08,10.0,North,5.8,-,N/A,,Overcast,10,2013-04-02 02:36:00
6:56 PM,21.2,6.8,54,30.08,10.0,North,3.5,-,N/A,,Overcast,350,2013-04-02 02:56:00
7:16 PM,19.4,1.4,46,30.08,10.0,NNW,5.8,-,N/A,,Scattered Clouds,330,2013-04-02 03:16:00
7:36 PM,19.4,6.8,58,30.08,10.0,Calm,Calm,-,N/A,,Partly Cloudy,0,2013-04-02 03:36:00
7:56 PM,17.6,5.0,58,30.08,10.0,NNE,3.5,-,N/A,,Partly Cloudy,20,2013-04-02 03:56:00
8:16 PM,15.8,6.8,68,30.08,10.0,East,4.6,-,N/A,,Clear,90,2013-04-02 04:16:00
8:36 PM,14.0,3.2,62,30.08,10.0,ENE,5.8,-,N/A,,Clear,70,2013-04-02 04:36:00
8:56 PM,12.2,3.2,67,30.08,10.0,ENE,9.2,-,N/A,,Clear,60,2013-04-02 04:56:00
9:16 PM,12.2,1.4,62,30.08,10.0,NE,8.1,-,N/A,,Clear,50,2013-04-02 05:16:00
9:36 PM,12.2,-0.4,57,30.08,10.0,NNE,6.9,-,N/A,,Clear,20,2013-04-02 05:36:00
9:56 PM,8.6,1.4,73,30.09,10.0,ENE,3.5,-,N/A,,Clear,60,2013-04-02 05:56:00
10:16 PM,8.6,1.4,73,30.09,10.0,NE,5.8,-,N/A,,Clear,40,2013-04-02 06:16:00
10:36 PM,8.6,5.0,85,30.10,10.0,Calm,Calm,-,N/A,,Clear,0,2013-04-02 06:36:00
10:56 PM,6.8,-2.2,67,30.10,10.0,Calm,Calm,-,N/A,,Clear,0,2013-04-02 06:56:00
11:16 PM,5.0,-5.8,61,30.10,10.0,ESE,3.5,-,N/A,,Clear,110,2013-04-02 07:16:00
11:36 PM,5.0,-2.2,72,30.10,10.0,East,3.5,-,N/A,,Clear,90,2013-04-02 07:36:00
11:56 PM,3.2,1.4,92,30.10,10.0,Calm,Calm,-,N/A,,Clear,0,2013-04-02 07:56:00